[[{"header":{"parameterUnit":"m.s-1","parameterCategory":1,"la1":30.2991,"la2":30.254,"lo1":-89.0895,"lo2":-89.0444,"dy":0.0017,"dx":0.0017,"nx":28,"ny":28,"refTime":"2024-06-15T21:00:00:Z","depth":0,"parameterNumber":2,"parameterNumberName":"U-component_of_WINDS"},"data":[0,0,0,0,0,0,0,0,0,0,0,0,0,0,0,0,0,0,0,0,0,0,0,0,0,0,0,0,0,0,0,0,0,0,0,0,0,0,0,0,0,0,0,0,0,0,0,0,0,0,0,0,0,0,0,0,0,0,-5.3835,-5.3836,0,-5.3926,-5.3927,-5.3928,-5.3957,-5.3956,-5.3956,-5.3955,-5.4052,-5.4055,-5.4058,0,0,0,0,0,0,0,0,0,0,0,0,0,-5.3687,-5.369,-5.3835,-5.3836,-5.3837,-5.3926,-5.3927,-5.3928,-5.3957,-5.3956,-5.3956,-5.3955,-5.4051,-5.4055,-5.4058,0,0,0,0,0,0,0,0,0,0,0,0,0,-5.3762,-5.3691,-5.3835,-5.3862,-5.3866,-5.3926,-5.3927,-5.3929,-5.3957,-5.3956,-5.3956,-5.3955,-5.405,-5.4054,-5.4059,-5.41,0,0,-5.4073,-5.4075,0,0,0,0,0,0,0,0,-5.3758,-5.3768,-5.3857,-5.386,-5.3864,-5.3929,-5.391,-5.3986,-5.3957,-5.3922,-5.3955,-5.3955,-5.4012,-5.402,-5.4038,-5.4104,-5.4108,-5.4073,-5.4076,-5.4078,-5.4079,0,0,0,0,0,0,0,-5.3753,-5.3764,-5.3871,-5.3858,-5.3863,-5.387,-5.388,-5.3925,-5.397,-5.3925,-5.3928,-5.3938,-5.4014,-5.4034,-5.4041,-5.411,-5.4073,-5.4077,-5.408,-5.4081,-5.421,-5.4211,0,0,0,0,0,0,-5.3742,-5.3759,-5.3868,-5.3874,-5.3808,-5.3873,-5.3884,-5.3909,-5.397,-5.3978,-5.3938,-5.3939,-5.4027,-5.4036,-5.4044,-5.4094,-5.4078,-5.4082,-5.4084,-5.421,-5.421,-5.4211,0,0,0,0,0,0,-5.3739,-5.3752,-5.3865,-5.3817,-5.3832,-5.3876,-5.3904,-5.3911,-5.3931,-5.3979,-5.3988,-5.395,-5.4026,-5.4038,-5.4085,-5.4097,-5.4084,-5.4088,-5.4209,-5.421,-5.4211,-5.4194,0,0,0,0,0,0,-5.3735,-5.3751,-5.3767,-5.3817,-5.3835,-5.3903,-5.3905,-5.3914,-5.3938,-5.394,-5.3993,-5.4001,-5.4027,-5.4078,-5.4089,-5.4103,-5.4091,-5.4208,-5.4209,-5.4211,-5.4194,-5.4194,-5.4195,0,0,0,0,0,-5.3729,-5.376,-5.3767,-5.378,-5.3855,-5.3904,-5.3914,-5.3942,-5.3939,-5.3955,-5.3986,-5.3999,-5.4094,-5.4082,-5.4095,-5.4111,-5.4207,-5.4209,-5.421,-5.4193,-5.4194,-5.4195,0,0,0,0,0,0,-5.3712,-5.3767,-5.3776,-5.3824,-5.3858,-5.3909,-5.393,-5.3943,-5.398,-5.398,-5.4015,-5.4026,-5.407,-5.4096,-5.4081,-5.4152,-5.4151,-5.4155,-5.4134,-5.4135,-5.4136,-5.4128,-5.4095,0,0,0,0,0,-5.3713,-5.3747,-5.3794,-5.3832,-5.3848,-5.3886,-5.3908,-5.3926,-5.3965,-5.398,-5.4014,-5.4051,-5.4089,-5.4114,-5.4152,-5.4197,-5.4208,-5.4214,-5.4215,-5.4215,-5.4219,-5.4242,-5.4245,-5.4217,-5.4217,-5.4217,0,0,-5.3717,-5.3751,-5.3771,-5.3829,-5.3858,-5.3892,-5.3898,-5.3936,-5.3961,-5.3986,-5.4031,-5.4057,-5.4101,-5.4146,-5.4168,-5.4169,-5.4229,-5.4218,-5.4217,-5.4221,-5.4244,-5.4247,-5.4249,-5.4218,-5.4218,-5.4217,0,0,-5.3741,-5.3771,-5.3804,-5.3832,-5.3875,-5.3899,-5.3907,-5.3954,-5.3972,-5.4017,-5.4035,-5.4067,-5.4132,-5.4162,-5.4185,-5.4216,-5.4229,-5.4227,-5.4231,-5.4254,-5.4256,-5.4258,-5.4267,-5.427,-5.423,-5.423,-5.423,0,-5.374,-5.3792,-5.382,-5.3854,-5.3878,-5.39,-5.3933,-5.3959,-5.4013,-5.4029,-5.4029,-5.4109,-5.414,-5.4191,-5.4198,-5.4217,-5.4226,-5.4222,-5.4253,-5.4255,-5.4258,-5.4267,-5.4271,-5.423,-5.423,-5.423,-5.423,0,-5.3788,-5.3823,-5.3845,-5.3893,-5.392,-5.3953,-5.3986,-5.4009,-5.4024,-5.4048,-5.4093,-5.413,-5.4175,-5.4188,-5.4205,-5.4241,-5.424,-5.4246,-5.4246,-5.4259,-5.4268,-5.4272,-5.4229,-5.4229,-5.4229,-5.423,0,0,-5.3805,-5.3865,-5.3873,-5.3893,-5.3941,-5.3969,-5.4003,-5.4044,-5.4063,-5.4099,-5.4127,-5.418,-5.4185,-5.4211,-5.4231,-5.4251,-5.427,-5.4254,-5.4256,-5.4254,-5.431,-5.4304,-5.4308,-5.4279,-5.4279,-5.428,-5.4306,0,-5.3833,-5.3893,-5.3917,-5.3966,-5.3998,-5.4017,-5.4047,-5.4079,-5.4102,-5.4132,-5.4158,-5.4194,-5.4198,-5.4214,-5.4234,-5.4263,-5.4281,-5.4262,-5.4305,-5.4307,-5.4293,-5.4313,-5.4308,-5.4331,-5.431,-5.431,-5.4311,0,-5.3875,-5.3908,-5.3959,-5.3999,-5.4014,-5.4039,-5.4077,-5.4107,-5.4143,-5.4158,-5.4185,-5.4203,-5.4239,-5.4236,-5.4285,-5.4271,-5.4291,-5.4307,-5.4309,-5.4313,-5.4309,-5.4317,-5.4339,-5.4342,-5.4317,-5.4317,-5.4316,0,-5.3879,-5.3937,-5.3974,-5.3991,-5.404,-5.4057,-5.4079,-5.4114,-5.4136,-5.417,-5.4185,-5.4223,-5.4244,-5.4273,-5.43,-5.4296,-5.4346,-5.4346,-5.436,-5.4359,-5.4369,-5.4368,-5.4393,-5.4383,-5.4383,-5.4383,-5.4383,0,-5.3908,-5.3938,-5.3976,-5.3999,-5.4032,-5.4059,-5.4092,-5.4115,-5.4146,-5.4173,-5.4194,-5.4219,-5.4254,-5.4284,-5.4306,-5.4342,-5.4352,-5.4365,-5.437,-5.4363,-5.4361,-5.4376,-5.4375,-5.4384,-5.4384,-5.4384,-5.4383,0,-5.3918,-5.3945,-5.3986,-5.4028,-5.4039,-5.4062,-5.4097,-5.412,-5.4143,-5.4177,-5.4187,-5.4223,-5.4259,-5.4289,-5.4337,-5.4352,-5.4389,-5.4396,-5.4376,-5.4379,-5.439,-5.4388,-5.4424,-5.443,-5.4417,-5.4417,-5.4417,0,-5.3934,-5.3957,-5.4,-5.4018,-5.4039,-5.4069,-5.4091,-5.4118,-5.414,-5.4182,-5.4199,-5.4236,-5.4267,-5.4323,-5.4355,-5.4391,-5.4398,-5.4408,-5.4404,-5.4395,-5.4397,-5.4395,-5.4396,-5.4409,-5.4409,-5.4409,-5.4409,0,-5.3958,-5.3969,-5.3999,-5.4033,-5.4058,-5.4087,-5.4116,-5.413,-5.4163,-5.4187,-5.4222,-5.4246,-5.4293,-5.4329,-5.4368,-5.4391,-5.4405,-5.4409,-5.4414,-5.4407,-5.4393,-5.4399,-5.4376,-5.4409,-5.4409,-5.4409,-5.4409,-5.4409,-5.3971,-5.3991,-5.4023,-5.4055,-5.4079,-5.4105,-5.4128,-5.4152,-5.4181,-5.422,-5.4235,-5.4271,-5.4305,-5.4359,-5.4381,-5.4411,-5.4412,-5.442,-5.4422,-5.4423,-5.4421,-5.4389,-5.4418,-5.4418,-5.4418,-5.4418,-5.4418,0,-5.3994,-5.4015,-5.4044,-5.4083,-5.4108,-5.4117,-5.4149,-5.4169,-5.42,-5.423,-5.4258,-5.4299,-5.4333,-5.4366,-5.4402,-5.4419,-5.4426,-5.4427,-5.4426,-5.4431,-5.4418,-5.4409,-5.4421,-5.4421,-5.4421,-5.4421,-5.4421,-5.4421,-5.4009,-5.4043,-5.4058,-5.4103,-5.4125,-5.4158,-5.4176,-5.42,-5.4223,-5.4266,-5.4294,-5.4314,-5.4345,-5.4383,-5.4415,-5.4424,-5.4436,-5.4435,-5.4446,-5.4433,-5.4432,-5.4431,-5.4424,-5.4438,-5.4438,-5.4456,-5.4456,-5.4456]},{"header":{"parameterUnit":"m.s-1","parameterCategory":1,"la1":30.2991,"la2":30.254,"lo1":-89.0895,"lo2":-89.0444,"dy":0.0017,"dx":0.0017,"nx":28,"ny":28,"refTime":"2024-06-15T21:00:00:Z","depth":0,"parameterNumber":3,"parameterNumberName":"V-component_of_WINDS"},"data":[0,0,0,0,0,0,0,0,0,0,0,0,0,0,0,0,0,0,0,0,0,0,0,0,0,0,0,0,0,0,0,0,0,0,0,0,0,0,0,0,0,0,0,0,0,0,0,0,0,0,0,0,0,0,0,0,0,0,3.5281,3.5281,0,3.5276,3.5276,3.5276,3.5173,3.5171,3.5168,3.5166,3.5161,3.5163,3.5165,0,0,0,0,0,0,0,0,0,0,0,0,0,3.5204,3.5206,3.5281,3.5281,3.5281,3.5276,3.5276,3.5276,3.5174,3.5171,3.5167,3.5164,3.516,3.5163,3.5165,0,0,0,0,0,0,0,0,0,0,0,0,0,3.5222,3.5206,3.5281,3.5229,3.5224,3.5276,3.5276,3.5276,3.5175,3.5171,3.5167,3.5163,3.5159,3.5162,3.5166,3.5266,0,0,3.5176,3.5178,0,0,0,0,0,0,0,0,3.5221,3.5225,3.5237,3.5233,3.5228,3.5221,3.5247,3.5272,3.5175,3.5194,3.5166,3.5161,3.5184,3.5185,3.5193,3.5266,3.5266,3.5177,3.5179,3.518,3.5181,0,0,0,0,0,0,0,3.522,3.5225,3.5279,3.5237,3.5232,3.5207,3.5205,3.5251,3.5211,3.5192,3.5184,3.5185,3.5181,3.519,3.5192,3.5265,3.5177,3.518,3.5182,3.5183,3.5424,3.5428,0,0,0,0,0,0,3.5226,3.5224,3.5279,3.5278,3.5215,3.5212,3.521,3.5227,3.521,3.5204,3.5188,3.518,3.5186,3.5188,3.5191,3.531,3.518,3.5184,3.5186,3.542,3.5425,3.543,0,0,0,0,0,0,3.5224,3.5231,3.5279,3.5249,3.5254,3.5217,3.5238,3.5229,3.5238,3.5208,3.52,3.5205,3.5183,3.5187,3.5249,3.5308,3.5185,3.5188,3.5415,3.5422,3.5428,3.5547,0,0,0,0,0,0,3.5223,3.5232,3.5269,3.5251,3.5256,3.5336,3.5241,3.5232,3.5244,3.5234,3.5221,3.5215,3.518,3.5245,3.5253,3.5311,3.5191,3.5409,3.5418,3.5426,3.5538,3.5557,3.5573,0,0,0,0,0,3.522,3.5301,3.5271,3.5278,3.5301,3.534,3.5343,3.53,3.5249,3.5287,3.5268,3.5216,3.5301,3.5252,3.526,3.532,3.5406,3.5416,3.5425,3.553,3.5553,3.5573,0,0,0,0,0,0,3.5326,3.5298,3.5264,3.5342,3.5344,3.5323,3.5368,3.5326,3.5342,3.5332,3.5279,3.5277,3.5348,3.534,3.5286,3.5418,3.5344,3.5356,3.5421,3.5443,3.546,3.5461,3.5194,0,0,0,0,0,3.5358,3.5392,3.5366,3.5437,3.544,3.5405,3.542,3.5388,3.5388,3.5388,3.5373,3.5376,3.5404,3.5422,3.5446,3.5536,3.5533,3.5582,3.56,3.5614,3.5625,3.5676,3.5698,3.5462,3.5462,3.5462,0,0,3.5425,3.5414,3.5438,3.5458,3.5456,3.5494,3.5406,3.5448,3.5476,3.5394,3.5453,3.5443,3.5443,3.5521,3.5554,3.5516,3.569,3.5627,3.5639,3.5642,3.5688,3.571,3.573,3.5469,3.5467,3.5466,0,0,3.5567,3.5561,3.5621,3.5622,3.5621,3.5597,3.5612,3.5598,3.5589,3.5647,3.5588,3.562,3.5668,3.5671,3.5679,3.5826,3.578,3.5835,3.5928,3.5978,3.5997,3.6013,3.6068,3.6088,3.5846,3.5847,3.5847,0,3.565,3.5703,3.5658,3.5705,3.5717,3.5646,3.5708,3.5711,3.5718,3.5728,3.5685,3.5746,3.574,3.582,3.5856,3.5864,3.5881,3.5836,3.5998,3.6013,3.6028,3.608,3.61,3.5854,3.5853,3.5852,3.5851,0,3.5807,3.5846,3.5895,3.5905,3.5922,3.5976,3.594,3.5963,3.593,3.5912,3.5974,3.5965,3.5987,3.6003,3.5971,3.6079,3.6056,3.6007,3.5931,3.6058,3.6106,3.6125,3.5863,3.5861,3.5859,3.5857,0,0,3.6013,3.6,3.6019,3.6024,3.6019,3.6048,3.6101,3.6123,3.6145,3.6153,3.6197,3.6241,3.6196,3.6205,3.6173,3.6216,3.6337,3.6161,3.6161,3.6196,3.6459,3.6498,3.6521,3.6306,3.631,3.6313,3.646,0,3.6151,3.624,3.6202,3.6295,3.6332,3.6268,3.6314,3.6317,3.6302,3.6331,3.6314,3.6347,3.6284,3.629,3.633,3.6314,3.639,3.6303,3.6348,3.635,3.6352,3.6546,3.6586,3.6725,3.6478,3.6481,3.6484,0,3.6324,3.6341,3.6439,3.6431,3.6445,3.6487,3.6506,3.6535,3.6538,3.6524,3.6537,3.6496,3.6548,3.6474,3.6547,3.6489,3.6505,3.6501,3.6505,3.6508,3.6425,3.6556,3.6768,3.679,3.6512,3.651,3.6508,0,3.6467,3.6514,3.6579,3.6586,3.6578,3.661,3.6608,3.6607,3.6624,3.6641,3.6653,3.6675,3.6688,3.6708,3.6675,3.6623,3.6754,3.6675,3.6745,3.6746,3.6776,3.6775,3.6995,3.6785,3.6784,3.6784,3.6783,0,3.6626,3.6689,3.6644,3.6684,3.6754,3.6711,3.678,3.6771,3.6772,3.6811,3.6756,3.6793,3.6747,3.6781,3.6755,3.6821,3.6827,3.6818,3.6811,3.6824,3.6826,3.6835,3.6825,3.6789,3.6788,3.6787,3.6786,0,3.6797,3.677,3.6837,3.6826,3.6824,3.6876,3.6866,3.6904,3.6886,3.6936,3.6945,3.6918,3.6954,3.6924,3.6959,3.6942,3.703,3.7008,3.703,3.7024,3.7097,3.7091,3.7332,3.7363,3.7131,3.7133,3.7135,0,3.6901,3.6948,3.6943,3.6965,3.6968,3.7004,3.7022,3.6982,3.7003,3.7013,3.705,3.7083,3.7107,3.7169,3.7153,3.718,3.716,3.7242,3.7163,3.7176,3.7164,3.7162,3.7168,3.7258,3.7261,3.7263,3.7265,0,3.709,3.7075,3.7103,3.7128,3.7152,3.7169,3.7182,3.7204,3.7164,3.7191,3.7228,3.7247,3.7285,3.7319,3.7342,3.734,3.7298,3.729,3.7308,3.7323,3.7334,3.7332,3.7075,3.7285,3.7283,3.7282,3.728,3.728,3.7231,3.7272,3.7275,3.731,3.7316,3.7331,3.7367,3.7355,3.7386,3.7414,3.7389,3.7435,3.744,3.7467,3.7471,3.7508,3.7474,3.7499,3.7506,3.7513,3.7525,3.7328,3.7512,3.7511,3.751,3.751,3.7509,0,3.7419,3.7419,3.7451,3.7473,3.7501,3.7459,3.7472,3.7498,3.754,3.7549,3.7575,3.762,3.7654,3.7641,3.7671,3.7703,3.7684,3.7712,3.771,3.7712,3.7552,3.7535,3.7727,3.7727,3.7727,3.7727,3.7727,3.7727,3.752,3.7587,3.7573,3.7644,3.7643,3.7689,3.7701,3.7715,3.7722,3.7776,3.7804,3.7796,3.7797,3.7827,3.7857,3.7852,3.7867,3.7903,3.7892,3.7744,3.7722,3.7702,3.7685,3.7906,3.7906,3.8048,3.8049,3.805]}]]